RH
55 58 58 57 54 47 44 47 49 51 49 46 46 44 40 40 39 36 34 34 36 39 42 44 45 46 47 48 47 46 45 44 43 39 36 33 32 31 29 27 26 27 26 26 29 31 36 40 37 36 42 42 41 49 56 57 57 60 61 60 61 62 68 69 64 67 73 79 81 77 77 79 82 86 86 75 62 58 55 46 37 32 32 30 28
58 58 55 56 53 47 47 51 53 51 47 43 43 40 35 34 34 33 34 35 38 42 45 45 43 42 41 40 38 36 36 36 34 30 27 25 24 23 23 23 26 29 30 32 35 36 35 36 36 39 41 38 39 45 52 57 57 56 55 58 60 57 60 62 56 56 59 69 76 74 73 74 77 82 85 81 68 61 59 54 44 35 34 33 29
59 54 53 56 53 48 50 52 52 50 45 41 38 36 34 33 35 36 37 40 43 43 41 38 34 30 27 25 24 24 25 25 23 21 20 20 19 19 20 23 26 28 30 34 38 40 40 39 39 40 39 35 32 36 46 54 55 54 52 54 57 53 54 58 59 58 53 56 63 64 64 64 68 75 81 83 75 65 62 59 52 43 37 37 33
59 54 52 57 54 52 55 53 53 53 48 41 36 35 36 35 35 36 38 41 38 33 29 26 22 18 17 16 16 16 17 17 16 16 17 17 17 17 19 21 22 23 26 33 37 39 38 37 36 36 35 32 28 28 38 48 52 55 55 56 56 52 52 58 63 61 56 59 63 64 62 58 58 63 74 83 81 74 67 63 59 52 43 40 39
63 62 57 53 50 52 54 55 57 57 53 45 37 35 33 29 27 28 31 31 25 21 20 18 16 15 15 15 15 15 15 15 16 16 16 16 17 17 18 19 20 21 23 26 29 30 30 29 29 30 30 30 29 28 31 39 43 48 54 57 55 52 54 57 61 62 61 64 68 71 69 63 58 58 66 78 84 82 75 70 65 59 51 42 42
61 67 64 53 50 54 56 56 57 56 54 46 35 26 21 21 22 21 21 20 18 17 17 16 16 16 15 15 16 16 16 17 17 17 17 17 18 18 18 19 20 21 21 22 22 23 24 24 25 26 27 28 30 30 31 35 35 35 43 53 54 51 50 53 59 64 64 65 69 75 76 72 69 66 66 73 81 85 83 79 72 66 60 49 44
57 62 63 60 57 55 54 57 58 51 45 36 25 17 15 19 19 17 16 17 17 17 17 17 17 17 16 17 17 17 17 17 18 18 18 18 18 19 19 20 21 21 22 22 22 22 23 23 24 25 26 28 30 32 34 36 35 29 31 42 51 53 50 50 53 60 66 66 68 74 79 80 81 79 77 76 77 81 85 85 81 74 66 57 49
57 57 61 63 58 51 49 53 49 35 25 19 16 16 16 17 16 15 16 16 17 17 17 18 18 17 17 17 17 18 18 18 19 19 19 19 19 20 20 21 22 22 23 23 23 24 24 24 24 25 25 27 28 30 33 36 36 32 29 31 39 47 52 52 48 52 62 65 67 71 73 76 80 81 81 81 76 75 81 84 85 80 72 64 53
59 60 60 56 50 45 40 35 29 21 18 17 16 17 16 16 16 16 16 16 17 17 18 18 18 18 17 18 18 18 19 19 19 19 20 20 20 21 21 22 22 23 23 23 24 24 25 25 25 26 26 26 26 27 29 32 34 34 33 31 31 34 43 53 54 51 54 58 66 73 72 71 75 76 73 77 79 76 76 80 85 84 77 70 60
62 61 57 49 41 36 27 21 21 20 19 18 17 17 16 16 16 16 16 17 17 17 18 18 19 19 18 18 18 19 19 20 20 20 21 21 21 22 22 23 23 24 24 24 25 25 26 26 26 26 26 26 26 26 26 27 29 30 32 32 32 31 33 43 51 51 50 51 60 71 77 73 73 78 76 78 84 82 79 80 85 87 84 78 70
60 57 52 44 33 24 20 21 22 22 19 18 18 18 17 17 17 17 17 17 18 18 18 19 19 19 19 19 19 20 20 21 21 21 22 22 23 23 23 24 24 25 25 25 26 26 26 26 26 26 25 25 24 24 23 22 22 22 25 26 28 30 31 34 37 42 45 47 50 59 74 76 76 82 82 81 84 81 80 82 86 90 90 85 80
58 54 46 35 24 19 20 22 22 22 20 18 18 18 17 17 17 17 18 18 19 19 19 20 20 20 21 21 21 21 21 22 22 23 23 24 24 25 25 25 26 26 26 27 27 26 26 25 25 24 23 22 21 20 18 17 16 14 15 16 18 22 26 29 31 32 36 41 44 47 59 71 79 82 79 79 81 78 77 80 85 91 93 90 87
48 42 33 23 19 20 21 21 22 21 19 19 19 18 18 18 18 18 18 20 20 21 22 21 22 22 22 23 23 23 23 24 24 25 25 26 26 27 27 27 27 28 27 28 27 26 25 23 22 20 19 17 15 14 12 10 8 7 7 7 8 11 14 20 24 27 29 34 40 41 46 57 73 81 79 78 78 81 87 87 83 85 90 89 87
34 27 21 18 19 20 20 21 21 21 20 19 19 18 18 18 19 20 20 21 22 23 24 24 24 24 24 24 24 25 25 25 26 27 27 28 28 28 29 29 28 28 28 27 25 23 21 19 17 16 14 12 9 8 6 5 3 3 3 2 3 4 5 8 11 16 20 24 31 37 41 45 57 71 79 81 76 79 96 99 88 82 86 85 84
24 19 19 21 22 22 22 22 21 21 20 19 19 19 19 20 21 22 22 23 23 24 26 26 27 26 26 26 26 26 26 27 28 29 29 30 30 30 29 29 28 27 25 23 20 18 16 14 12 10 9 7 5 4 3 2 2 2 2 2 2 2 2 3 3 5 8 12 18 25 35 41 45 53 64 77 78 75 82 87 82 82 86 86 86
22 24 27 27 27 27 26 25 23 22 20 20 21 21 21 22 22 22 22 23 25 26 27 29 30 30 29 28 27 28 28 29 30 30 31 31 30 29 27 26 24 22 19 17 15 12 11 9 7 5 4 3 3 2 2 2 2 2 2 1 2 2 1 1 2 2 2 3 6 11 19 30 37 42 47 58 69 73 71 71 73 81 90 92 89
30 33 34 32 32 32 29 27 25 23 22 21 21 20 21 20 20 20 22 24 27 28 29 31 34 34 32 30 29 30 30 31 32 32 32 30 26 23 20 18 16 15 12 10 9 7 6 4 3 3 2 2 2 2 2 2 2 2 2 2 2 2 2 2 2 2 2 1 2 3 5 11 19 29 36 41 52 62 66 65 66 76 92 98 94
37 36 36 36 35 32 29 26 24 22 21 20 19 19 18 17 19 20 23 26 29 32 34 36 38 37 34 32 31 32 32 33 33 31 28 24 19 15 12 11 9 9 7 5 5 3 3 2 2 2 2 2 2 2 2 2 2 2 2 2 2 2 2 2 2 1 2 1 1 2 1 3 5 11 19 26 36 46 52 55 53 59 79 96 97
35 34 33 33 30 27 25 22 20 19 18 18 18 18 19 21 24 26 29 31 34 38 41 42 42 38 35 33 33 34 34 33 30 26 22 17 13 10 7 7 5 4 4 3 3 2 2 2 2 2 2 2 2 2 3 2 2 2 2 2 2 2 2 2 2 2 2 2 2 2 1 2 2 2 5 10 18 27 35 42 43 44 57 79 92
30 29 27 26 24 21 20 19 18 18 17 18 19 23 28 33 37 39 40 41 44 47 48 46 42 37 35 34 34 35 33 29 23 19 16 12 10 7 5 4 3 3 2 2 2 2 2 2 2 2 2 2 3 2 3 2 3 2 2 3 2 2 2 2 2 2 2 2 2 2 2 2 2 1 2 2 4 9 17 26 33 35 38 56 80
27 25 23 21 20 19 19 19 18 18 19 24 30 37 42 45 48 49 50 52 53 52 48 43 38 36 36 36 34 32 27 22 17 13 11 8 6 5 3 3 2 2 2 2 2 2 2 2 2 3 2 3 3 3 3 2 3 3 2 3 2 2 2 2 3 2 2 2 2 2 2 2 2 1 2 2 1 2 5 12 22 30 30 44 70
23 22 21 20 20 20 19 19 20 24 30 37 42 45 46 47 49 51 54 55 52 48 42 38 37 36 36 33 27 22 17 12 9 7 5 4 3 3 2 2 2 2 2 2 3 2 3 3 3 3 3 3 3 3 3 3 3 3 3 3 3 3 3 2 2 2 2 2 2 2 2 2 2 2 2 1 2 1 1 3 10 22 27 40 65
22 23 23 22 22 22 22 25 30 35 39 40 40 40 41 43 47 49 51 49 44 40 38 37 37 35 30 22 15 11 7 5 4 3 2 2 2 2 2 3 3 3 3 3 3 3 3 3 3 3 3 3 3 3 3 3 3 3 3 3 3 3 3 3 3 3 3 2 2 2 2 3 2 2 2 1 2 1 2 2 2 12 21 35 61
24 24 25 26 27 28 31 34 37 38 36 34 34 35 39 43 45 46 44 41 38 38 38 38 35 29 20 14 9 6 4 3 3 2 2 2 2 2 3 3 3 3 3 3 3 3 3 3 3 3 3 3 3 3 3 3 3 3 3 3 3 3 3 3 3 2 3 2 3 3 2 3 2 2 2 2 2 1 2 2 -0 5 12 26 54
32 34 34 35 35 36 37 38 37 35 32 32 34 37 41 43 42 41 39 38 39 39 39 35 29 21 14 9 7 5 3 3 2 2 2 3 3 3 3 3 3 3 3 3 4 4 3 3 4 3 3 3 3 3 3 3 3 3 3 3 3 3 3 3 3 3 3 2 2 3 2 3 2 2 2 1 2 2 1 2 1 2 5 16 42
41 40 38 37 38 38 39 37 35 32 32 35 38 40 41 40 38 38 38 40 40 38 34 27 20 14 10 7 5 3 3 2 2 3 3 3 3 3 3 3 4 4 4 4 4 4 4 3 4 3 3 3 3 3 3 3 3 3 3 3 3 3 3 3 3 2 3 2 2 3 2 3 2 2 3 2 2 2 1 2 1 1 2 6 23
43 40 40 40 41 40 38 35 33 33 36 39 41 40 39 37 38 39 41 40 37 32 26 19 13 9 6 4 3 2 2 2 2 3 3 3 4 3 4 4 4 4 4 4 4 4 4 3 3 3 3 3 3 3 3 3 3 3 3 3 3 3 2 2 3 2 3 2 2 3 2 2 3 2 2 2 2 3 2 2 2 1 2 2 7
47 45 45 44 41 38 35 33 34 36 40 40 39 38 37 38 40 41 40 37 31 24 17 12 8 5 4 3 2 2 3 3 3 3 3 4 4 4 4 4 4 4 3 4 4 4 4 3 3 4 3 3 3 3 3 3 3 3 3 3 2 3 3 2 2 2 2 3 2 2 2 2 2 2 2 2 2 2 2 2 2 1 2 2 1
50 48 46 43 39 36 34 35 37 40 41 39 37 38 38 40 42 41 37 30 23 15 10 7 4 3 3 2 3 3 3 3 3 4 4 4 4 4 4 4 4 4 3 4 4 4 4 4 3 4 3 3 3 3 3 3 3 3 2 3 2 2 2 2 3 3 2 3 2 2 2 2 2 2 2 2 2 2 2 2 2 2 1 2 1
53 49 45 42 38 36 36 37 40 40 39 38 38 39 41 43 42 37 30 22 14 9 6 4 3 2 2 2 3 3 3 4 4 4 4 4 4 4 4 4 4 4 4 4 4 4 4 4 3 4 3 3 3 3 3 3 2 3 2 3 4 4 5 5 5 6 5 5 4 3 3 2 2 2 2 2 2 2 2 2 2 2 2 2 2
56 50 45 41 38 38 38 39 40 39 39 39 40 42 43 43 38 29 20 13 7 5 3 3 2 2 3 3 4 4 4 4 4 4 4 4 4 4 4 4 4 4 4 4 4 4 4 4 4 4 3 3 3 3 3 3 3 3 4 6 8 10 13 14 15 15 14 12 10 7 5 3 2 3 2 2 2 2 2 2 2 2 2 2 2
57 51 46 41 39 39 39 39 40 39 40 41 42 44 43 37 28 17 11 7 4 3 2 3 3 3 4 4 4 4 4 5 4 4 4 4 4 4 4 4 4 4 4 4 4 4 4 4 3 4 4 3 3 3 3 3 3 5 8 11 15 17 20 23 25 26 26 24 21 16 13 9 6 4 3 2 2 2 2 2 2 2 2 2 2
57 51 46 42 40 40 40 40 40 41 42 44 44 43 35 26 17 10 6 4 2 2 2 3 3 4 4 4 4 5 4 5 5 4 4 4 4 4 4 5 5 4 4 4 4 4 4 4 4 4 3 3 3 3 3 4 6 9 13 16 19 20 23 26 28 31 33 33 31 27 23 19 13 9 6 4 3 2 2 2 2 2 2 2 2
57 52 46 43 41 40 40 40 42 43 45 46 42 34 24 15 9 6 4 3 2 3 3 3 4 4 5 5 5 5 5 5 4 4 5 4 4 5 4 5 5 5 5 5 4 5 4 4 4 4 3 3 3 3 5 7 10 14 17 19 21 22 26 30 31 33 36 36 35 34 32 29 23 16 11 7 5 3 2 2 2 2 2 2 2
57 52 47 44 42 41 41 42 45 46 46 41 33 23 14 8 5 3 3 2 3 3 3 4 5 4 5 5 5 5 5 5 5 4 5 5 5 5 5 5 5 5 5 5 5 5 4 4 4 3 3 3 3 4 6 10 14 17 19 20 23 26 31 35 35 35 37 38 38 39 39 37 33 26 17 11 8 5 4 2 2 2 2 2 2
57 52 48 45 43 42 43 45 47 46 42 33 22 14 8 4 3 3 2 3 3 4 4 5 5 5 5 5 5 5 5 5 5 5 5 5 5 5 5 5 5 5 5 5 5 5 4 5 4 4 4 3 3 6 8 11 15 18 20 22 24 29 34 37 37 36 37 39 42 43 44 42 39 33 25 16 11 7 6 4 3 2 2 2 2
57 52 48 45 43 44 46 47 47 42 34 22 13 8 5 3 3 2 3 4 4 5 5 5 5 5 5 5 5 5 5 5 5 5 5 5 5 5 5 5 5 5 5 5 5 5 5 5 4 4 4 3 4 6 9 13 15 17 19 22 27 32 35 36 38 39 39 41 43 45 46 45 42 37 30 23 16 11 9 8 6 5 3 1 1
57 52 48 46 45 47 48 46 42 34 24 14 8 5 3 3 3 3 4 4 4 5 5 5 6 5 5 5 5 5 5 5 5 5 5 6 6 6 6 6 6 5 5 6 5 5 5 5 5 4 4 4 4 6 10 14 16 18 19 20 26 35 39 38 38 40 43 45 46 46 45 44 42 39 34 29 23 17 12 10 8 7 6 4 1
57 51 49 47 47 48 47 42 34 25 15 8 5 4 3 3 3 4 4 5 5 5 5 5 5 5 5 5 5 5 5 5 6 6 6 6 6 6 6 6 6 6 6 6 6 6 6 5 5 5 4 4 5 6 9 14 18 20 23 23 26 34 40 41 41 43 47 51 51 49 46 45 44 42 39 36 32 27 20 14 12 10 9 7 3
58 52 49 49 49 48 43 34 25 17 9 5 3 3 3 3 4 5 5 5 6 5 6 6 5 5 6 5 5 6 6 6 6 6 6 6 6 6 7 6 6 6 6 6 6 6 6 6 5 5 5 4 5 6 8 14 17 21 29 36 38 40 42 43 46 49 52 56 57 54 52 50 48 45 43 41 38 35 29 21 17 14 12 11 7
60 52 50 50 49 45 36 26 17 11 6 4 3 3 3 4 5 5 5 5 6 6 6 6 6 6 5 6 6 6 6 6 6 6 7 7 7 7 7 7 7 7 6 6 6 6 6 6 6 5 5 4 5 6 8 14 18 22 34 45 50 51 48 45 49 56 59 61 62 60 60 57 52 49 48 45 42 40 35 28 22 18 15 14 11
61 53 52 50 47 39 27 16 10 7 4 3 3 3 4 5 5 5 6 6 6 6 6 6 6 6 6 6 6 6 7 7 7 7 7 7 8 7 7 7 7 7 7 7 7 7 7 6 6 6 6 5 5 6 9 14 19 26 39 52 57 57 53 48 49 56 63 67 64 61 63 63 58 54 52 49 45 43 40 34 27 22 17 15 14
61 54 53 49 40 29 18 10 6 5 4 3 4 4 4 5 6 6 6 6 6 6 6 6 6 6 6 7 6 7 7 7 8 8 8 8 8 8 8 8 7 7 8 7 7 7 7 7 7 6 6 6 5 7 11 15 20 28 41 56 65 64 60 57 55 58 65 71 67 62 64 68 67 59 54 53 50 47 45 41 34 27 20 16 15
62 55 52 44 31 21 12 7 5 3 4 4 4 5 5 6 6 6 6 6 6 6 6 6 6 6 7 7 7 8 8 8 8 8 9 9 9 9 9 8 8 8 8 8 8 8 8 7 7 7 6 6 6 7 12 15 19 29 42 59 73 76 72 71 68 64 67 72 73 68 67 72 73 61 52 53 54 51 48 45 41 34 25 19 16
61 54 48 35 22 14 8 5 4 4 4 4 5 5 6 6 6 6 6 6 6 6 6 7 7 7 7 7 8 8 8 9 9 9 10 10 9 10 9 9 9 9 8 9 9 8 9 8 8 8 7 7 7 8 13 16 19 29 45 62 76 81 81 81 77 71 70 73 74 70 67 71 75 65 56 58 59 56 53 50 47 42 33 25 19
59 51 43 28 15 9 5 4 4 4 4 5 5 6 6 6 7 6 6 7 6 7 7 7 7 7 8 8 8 9 9 9 10 10 11 11 10 11 10 10 10 10 9 10 9 9 10 8 8 9 7 8 8 8 12 16 19 30 48 67 82 86 85 84 81 75 72 73 74 71 64 67 76 70 61 66 69 64 62 59 54 49 41 31 24
56 48 37 22 11 6 4 5 4 4 5 5 6 6 6 7 7 6 7 6 6 7 7 7 8 8 8 9 9 10 10 10 11 12 12 12 12 12 12 11 11 11 11 11 10 10 10 9 9 9 8 8 8 9 12 15 19 32 51 75 93 95 87 81 76 71 71 73 78 77 65 67 81 77 67 72 76 71 71 69 61 56 49 39 30
52 42 28 14 7 4 4 5 4 4 6 6 6 7 7 7 7 7 7 7 7 7 7 7 8 8 9 10 10 11 12 12 13 14 14 15 15 14 14 13 12 12 12 12 12 11 11 11 11 10 9 9 8 9 12 13 18 31 50 75 95 96 86 75 67 67 72 74 81 85 74 73 85 86 78 76 75 73 75 74 68 62 54 45 37
46 35 19 8 5 5 4 5 5 5 6 6 7 8 7 8 8 7 7 7 7 8 8 8 9 9 10 11 12 13 14 14 15 16 16 17 17 17 17 16 15 14 13 13 13 12 12 13 12 11 10 9 8 9 10 12 17 28 47 73 92 95 87 76 66 66 73 77 85 89 83 82 92 96 92 84 76 76 79 72 67 65 58 51 43
41 29 14 5 5 5 5 5 6 6 7 7 7 8 8 8 7 7 7 7 7 8 9 9 10 11 12 13 14 15 16 16 17 18 19 19 19 20 20 19 19 17 16 15 14 13 13 13 13 13 11 9 9 8 9 11 15 24 45 74 96 99 94 88 77 69 70 78 88 87 80 85 95 99 98 85 70 76 86 75 64 64 62 57 48
38 23 10 5 5 5 5 6 6 6 8 10 10 9 8 8 7 8 8 8 8 9 9 10 11 12 13 14 16 17 17 18 19 19 20 21 21 22 22 21 22 21 20 18 16 15 14 13 13 13 11 10 9 8 8 9 12 20 40 72 97 101 99 97 88 76 70 74 84 88 84 86 91 94 99 88 66 71 91 86 69 64 63 60 52
Wind_Speed
7 7 6 5 4 4 3 2 2 3 4 5 6 6 6 5 5 6 6 7 7 7 8 9 10 11 11 12 13 14 15 15 15 16 16 17 16 16 17 17 17 18 19 20 20 20 20 19 20 19 18 19 19 20 21 21 20 19 19 20 19 20 19 18 17 17 16 15 13 12 11 11 11 11 11 11 11 10 10 9 10 10 10 10 10
8 8 6 4 5 4 3 2 2 3 4 4 5 6 6 6 6 7 8 8 8 8 9 10 11 11 12 12 13 13 14 14 14 15 16 16 16 16 16 16 17 18 19 19 20 20 20 20 20 19 18 19 20 20 21 22 23 23 23 21 21 21 21 20 18 17 17 17 16 13 12 12 11 11 11 11 11 11 10 10 10 10 10 10 10
9 8 5 3 3 4 3 2 2 3 3 3 4 6 7 7 8 8 9 9 9 9 9 10 10 10 11 11 11 12 12 12 13 13 14 14 14 15 15 16 16 17 17 18 19 19 20 20 20 19 19 21 21 21 21 22 23 24 24 23 22 22 21 20 19 18 17 18 18 16 14 14 13 12 11 11 12 11 11 10 10 10 10 10 11
9 7 5 3 2 3 4 3 3 3 3 4 5 6 7 8 8 9 9 8 8 7 7 8 9 9 10 10 11 11 11 11 12 12 13 13 14 15 15 16 17 17 17 17 17 18 20 21 21 20 21 21 22 21 22 22 23 23 24 24 24 23 21 20 19 18 17 17 17 16 15 15 15 14 13 12 12 12 12 11 11 10 10 10 11
6 5 4 4 3 2 3 3 3 3 4 4 5 7 8 9 9 8 7 6 6 6 6 7 8 9 10 10 11 11 11 11 12 12 13 14 15 15 16 16 17 17 17 17 18 19 20 21 21 22 22 23 23 22 21 22 22 23 24 24 24 23 23 22 21 20 19 18 17 15 14 14 14 14 14 13 13 12 12 12 11 11 10 10 10
5 5 4 4 3 2 3 2 2 3 5 6 7 8 8 8 7 6 5 4 4 5 6 7 8 9 9 10 10 10 11 11 12 13 13 14 15 15 16 16 17 17 18 18 19 20 20 21 22 22 23 24 24 24 23 22 23 24 25 25 24 24 23 22 21 20 20 20 19 18 15 14 14 12 13 13 13 13 13 13 12 11 11 11 10
6 5 5 4 4 2 3 2 2 4 5 7 7 8 7 7 6 4 3 3 4 5 6 7 8 9 9 10 10 10 11 12 12 13 14 14 15 15 16 17 17 18 19 19 20 21 22 23 23 24 25 26 26 26 25 24 24 25 25 25 26 25 24 23 22 20 19 19 20 20 18 16 15 14 12 13 13 13 13 13 13 13 12 11 10
6 6 5 4 4 3 2 2 3 4 5 6 6 6 5 5 5 4 3 4 4 5 6 7 9 10 10 11 11 11 11 12 13 14 15 15 16 17 17 18 19 20 21 21 22 22 23 24 25 26 26 27 28 28 28 27 27 27 26 25 26 26 25 23 22 21 20 19 19 20 19 18 18 17 14 14 14 13 13 13 13 13 13 12 11
7 6 5 4 4 3 2 2 2 4 4 5 5 4 4 4 4 4 4 5 5 6 7 8 10 12 12 13 13 13 13 13 14 15 16 17 17 18 19 20 21 22 23 24 24 25 25 26 26 27 28 29 29 30 30 30 30 29 28 27 26 26 26 25 24 22 22 22 21 22 21 19 18 18 17 16 15 14 14 13 13 13 13 13 12
7 5 4 4 4 3 2 2 2 3 4 4 4 4 4 4 4 4 5 6 7 7 8 9 11 13 15 15 15 15 15 15 16 17 17 18 19 20 21 21 22 23 25 26 26 27 27 28 28 29 29 30 31 32 32 33 33 32 30 29 28 27 27 27 26 24 23 23 23 22 23 23 19 18 18 17 16 16 15 14 13 12 13 13 13
7 5 4 4 4 2 2 3 3 4 4 4 4 5 5 6 6 6 7 7 8 8 9 11 12 15 16 17 17 17 17 17 17 18 18 19 20 21 22 23 24 25 26 27 28 28 29 29 30 31 31 32 32 33 33 34 34 34 33 31 30 29 28 28 28 28 26 24 24 23 24 25 22 19 19 18 17 17 16 16 14 13 14 14 14
6 6 5 4 3 3 3 4 5 5 4 4 5 6 7 8 9 9 9 9 9 9 10 11 14 16 18 18 19 19 18 18 18 19 20 21 22 23 24 25 25 26 27 28 29 30 30 30 31 32 33 34 34 34 34 34 35 35 34 33 32 31 30 30 30 30 29 28 27 25 25 26 24 22 20 19 19 18 17 17 17 16 16 15 15
6 5 4 4 4 4 5 6 5 5 5 6 7 8 9 10 11 12 12 11 11 11 11 12 14 17 18 19 20 20 20 19 19 19 20 22 23 24 25 26 27 28 28 29 30 30 31 31 32 33 34 35 36 36 35 34 35 35 35 34 33 32 31 30 31 31 31 30 30 28 27 26 26 24 22 20 19 19 20 20 20 19 18 17 17
5 5 5 5 5 6 6 6 6 6 7 8 9 10 12 13 13 14 13 13 13 13 13 14 15 17 18 20 21 21 21 21 20 20 21 22 24 25 26 27 28 28 29 30 31 31 32 32 33 33 34 35 36 36 36 35 34 34 35 34 34 33 32 31 31 31 31 31 32 31 30 28 27 26 24 22 20 21 25 24 22 22 21 19 19
5 5 5 6 6 6 6 6 6 7 8 9 11 12 14 14 15 15 16 15 15 14 14 15 16 17 19 20 21 22 22 23 22 21 22 23 25 27 28 28 29 29 30 31 32 32 33 33 33 34 34 35 36 37 37 37 36 35 34 35 35 34 33 32 32 32 31 31 31 32 32 31 30 29 28 26 23 22 24 23 23 25 23 21 19
5 5 6 6 6 6 6 7 7 8 9 11 12 13 14 16 16 17 18 18 18 17 17 17 18 19 19 20 20 21 22 23 23 23 23 24 26 27 28 29 30 30 31 32 33 33 34 34 35 35 35 35 36 37 38 38 38 38 36 35 35 35 35 34 33 33 33 32 31 31 32 32 32 32 31 29 27 25 24 23 24 26 26 23 21
6 6 6 6 6 7 7 7 8 9 11 12 14 15 16 18 19 20 20 20 20 20 19 19 19 19 20 20 20 20 20 21 23 24 24 25 26 26 27 28 29 30 31 32 33 34 34 35 35 35 36 36 36 36 37 38 39 40 39 38 37 36 36 35 35 34 34 34 33 31 31 32 33 34 33 32 30 29 27 26 26 27 26 26 24
7 7 7 7 8 8 8 9 10 11 13 15 16 18 19 21 22 22 22 22 22 22 21 20 20 19 19 19 19 19 20 20 22 23 23 24 25 26 27 28 29 30 30 31 32 33 34 34 35 36 36 36 36 36 36 37 38 39 40 40 39 39 37 36 36 36 35 35 35 34 33 33 33 34 35 34 33 33 31 30 29 29 26 25 26
8 8 8 9 10 10 10 11 13 14 16 18 20 21 23 23 23 23 23 23 22 22 22 21 20 19 18 18 18 19 20 21 22 22 22 22 23 25 27 29 31 31 31 31 32 33 34 34 35 35 35 35 35 35 35 36 37 38 39 40 41 41 40 39 38 37 36 36 36 35 35 35 34 34 35 34 33 34 33 32 32 31 28 27 28
9 9 10 11 11 12 13 14 16 17 19 21 23 24 24 24 23 23 23 22 22 22 21 21 20 19 18 18 19 20 21 21 22 22 22 22 22 23 25 28 31 32 31 31 32 32 33 34 34 34 35 35 35 36 36 36 36 36 37 39 40 41 41 41 40 38 38 37 37 36 36 37 37 35 35 34 33 33 33 33 33 32 31 30 29
10 11 12 13 13 14 15 17 19 21 23 24 24 24 24 23 23 22 22 22 21 21 20 20 19 18 18 19 20 21 21 22 22 23 23 23 23 23 23 24 27 31 32 32 32 33 34 34 34 35 35 36 36 37 37 37 37 37 37 38 39 40 40 41 40 40 39 38 38 37 37 38 38 37 36 35 34 34 33 32 33 33 32 31 31
12 13 14 15 16 17 18 20 22 23 24 24 23 23 22 22 22 21 21 20 19 19 19 18 18 19 20 20 21 22 22 23 23 24 24 24 24 24 24 24 24 27 30 31 32 33 34 35 35 35 36 37 37 38 38 38 38 38 38 38 39 40 40 41 41 40 40 39 38 37 37 38 38 38 37 36 36 36 34 32 33 34 33 32 32
14 15 16 18 19 20 21 22 23 23 23 23 22 21 21 20 20 19 18 17 17 17 17 18 19 20 20 21 21 22 22 23 23 24 24 24 24 23 23 24 24 25 27 29 30 31 33 34 35 35 36 37 37 38 38 39 39 39 39 39 39 39 40 41 41 41 41 40 39 38 37 38 38 39 38 37 37 37 37 35 33 34 34 34 34
16 17 18 19 20 20 21 21 22 22 22 21 21 20 19 18 17 16 16 15 16 16 17 18 19 20 21 21 22 23 23 24 24 25 25 24 25 24 24 24 24 25 27 29 30 31 32 33 34 34 35 36 36 37 38 38 39 39 39 39 40 40 40 40 41 41 41 41 41 40 39 38 38 39 39 38 37 37 38 38 35 34 35 37 36
16 17 18 18 18 19 19 20 21 21 20 19 18 17 16 16 15 14 14 15 16 17 19 20 21 21 22 23 24 24 25 25 25 25 25 25 24 25 26 26 26 26 27 29 30 30 31 32 33 34 34 35 35 36 37 38 38 39 39 40 40 41 41 41 41 41 41 42 41 41 40 39 38 38 39 39 39 38 38 39 39 36 36 38 39
14 15 15 16 17 18 19 20 20 19 18 16 16 15 14 14 14 14 15 17 18 19 20 21 22 23 23 24 25 26 26 26 26 25 25 25 25 26 26 27 27 27 28 29 30 31 31 31 32 34 35 35 36 36 37 38 39 39 40 40 40 41 42 42 42 42 42 42 42 42 41 41 39 38 38 39 40 40 39 39 40 39 38 39 41
13 14 15 16 17 18 19 19 17 16 15 14 13 13 13 13 14 15 17 18 19 20 21 22 22 23 25 25 26 26 26 25 25 25 25 26 28 29 30 30 29 28 27 27 29 31 32 32 32 33 35 36 37 38 38 39 40 41 41 41 42 42 43 43 44 44 43 43 43 43 42 42 41 40 39 39 40 41 41 40 40 41 40 40 42
13 14 15 17 17 18 17 16 15 14 12 12 12 12 13 14 15 17 18 19 20 21 21 22 23 24 25 25 26 25 25 25 25 26 27 29 30 31 32 33 33 32 30 28 28 29 31 33 33 34 34 36 38 39 39 40 41 42 42 43 43 44 44 44 45 45 45 45 45 44 44 43 43 42 41 40 39 41 42 42 41 42 42 41 42
14 15 16 17 17 17 16 15 13 11 10 11 11 13 14 15 17 18 19 19 20 20 21 22 24 24 25 24 24 24 24 24 25 27 28 30 31 32 33 34 35 36 36 34 32 32 33 34 36 37 37 37 37 39 40 40 41 42 42 43 44 44 44 45 45 46 46 46 46 46 46 45 44 44 43 41 40 40 42 43 43 43 43 43 42
15 16 16 16 16 15 14 13 11 10 10 11 12 13 15 16 18 19 19 19 20 20 22 23 23 23 23 23 23 23 23 24 26 27 29 30 31 32 33 34 35 36 38 38 36 35 36 37 38 40 41 40 40 40 41 41 41 42 42 42 42 42 43 43 43 44 45 46 46 46 47 47 46 46 45 44 42 41 42 43 44 44 44 44 43
15 16 16 15 15 14 13 12 10 10 10 11 12 14 16 17 18 19 19 19 20 21 22 22 22 22 22 21 22 22 23 25 26 27 28 30 30 31 32 34 35 36 37 38 38 36 37 39 39 41 43 43 43 44 44 43 43 43 42 41 40 40 39 39 40 41 42 43 44 45 46 47 47 47 47 46 44 43 42 43 44 45 45 46 45
16 16 16 15 14 13 12 12 11 10 11 11 13 15 16 17 18 18 19 19 20 21 21 21 21 20 20 20 21 22 23 25 26 27 28 29 30 30 31 32 34 35 36 37 38 37 37 38 40 41 43 45 45 46 47 47 45 43 41 40 39 38 37 37 37 38 39 41 42 43 44 45 46 47 48 47 46 45 44 43 44 46 46 47 46
16 16 15 15 14 13 12 12 11 11 11 12 14 15 16 17 18 18 19 19 20 21 21 20 19 19 19 20 21 22 23 25 26 27 28 28 29 30 31 32 33 34 35 37 38 38 37 38 40 42 44 46 47 47 49 48 46 43 40 38 37 37 37 37 37 37 37 39 40 41 42 43 44 46 47 48 48 46 45 44 45 46 47 48 48
17 16 16 15 14 13 13 12 12 12 12 13 14 15 16 17 17 18 19 20 20 20 19 18 18 18 18 20 21 22 24 25 26 26 27 28 29 29 30 31 32 33 34 36 38 40 40 40 42 44 45 47 48 48 48 48 46 44 41 39 38 37 37 37 37 35 34 35 37 39 40 41 42 44 46 47 48 47 45 45 45 46 48 48 49
18 17 16 15 14 14 13 13 13 13 13 14 14 15 16 16 17 18 19 19 19 18 18 17 17 18 19 20 21 22 24 24 25 26 27 27 28 29 30 30 31 32 33 36 38 41 43 43 44 46 47 49 49 48 47 47 45 45 44 42 40 38 37 36 36 34 31 30 32 34 36 38 40 42 45 46 48 48 46 44 45 46 48 49 50
19 18 17 15 15 14 14 13 13 14 14 14 15 15 15 16 17 18 19 19 18 17 16 16 16 17 19 20 21 22 23 23 24 25 26 27 28 28 29 29 30 32 34 37 39 42 44 45 46 47 48 49 49 48 47 47 46 45 45 44 42 40 38 37 35 33 30 28 28 30 32 35 39 42 45 46 47 48 48 45 44 45 48 50 51
19 18 17 16 15 14 14 14 14 14 14 14 14 14 15 16 17 18 18 17 16 15 15 15 16 17 18 19 20 21 22 22 23 24 24 25 27 27 28 29 31 33 36 38 40 42 44 45 46 47 48 49 50 47 47 48 48 48 47 47 45 44 42 40 37 35 33 31 30 30 32 34 39 43 45 47 48 49 50 48 45 44 47 50 52
19 19 18 16 15 15 14 14 15 15 15 14 13 14 15 16 17 18 17 16 15 14 14 15 16 17 18 19 19 20 21 21 22 23 23 24 25 26 28 30 32 35 37 39 41 42 43 45 46 48 49 50 50 49 48 49 51 51 50 49 47 46 46 44 41 37 36 36 35 34 34 36 39 43 46 48 49 50 51 51 48 45 46 49 52
19 18 18 17 16 15 15 15 15 15 14 13 13 14 15 16 17 16 15 14 13 13 14 15 15 17 17 18 19 19 20 21 21 22 23 24 25 27 29 32 34 37 38 40 41 43 44 45 47 49 50 50 50 50 50 50 52 53 53 52 51 50 49 49 46 42 39 39 37 36 36 37 39 42 45 47 49 51 52 53 52 50 47 48 51
19 18 18 17 16 15 15 15 15 14 14 13 13 13 15 16 16 15 14 13 12 13 13 14 15 16 16 17 18 18 19 20 21 22 23 25 26 28 31 34 36 38 39 40 42 44 45 46 47 49 51 51 51 52 52 53 54 55 56 56 56 55 54 53 51 46 41 39 39 38 37 36 37 39 43 45 47 49 52 53 53 52 50 49 50
19 19 18 17 16 16 15 15 14 14 13 13 13 13 14 14 14 14 13 12 12 12 13 13 14 15 15 16 17 17 18 19 20 22 24 26 28 30 33 35 37 38 39 41 43 44 46 47 48 50 51 52 53 54 55 55 57 58 59 59 59 59 59 56 53 49 44 41 40 39 37 35 34 35 38 42 45 47 51 53 52 51 49 49 49
20 19 18 17 16 16 15 15 14 14 13 12 12 13 13 13 13 13 12 11 11 12 12 12 13 14 15 15 16 16 17 18 20 22 23 25 28 31 33 35 37 39 40 42 43 45 47 48 49 51 53 54 54 55 56 57 58 60 60 61 61 62 63 60 55 50 45 42 41 39 36 32 31 32 32 36 41 45 49 52 52 51 49 48 48
20 19 18 16 16 15 15 14 14 14 13 12 12 12 12 12 12 12 11 11 11 11 11 12 13 13 14 14 15 16 17 18 19 21 23 25 28 30 32 34 36 38 40 42 44 45 47 49 49 51 53 55 55 55 56 58 60 61 61 62 64 65 66 64 60 53 47 44 42 39 36 32 31 31 29 30 34 39 45 50 52 52 50 47 47
20 19 17 16 16 15 15 14 14 13 12 12 12 12 12 11 11 11 11 11 11 11 11 11 12 13 14 14 15 16 17 18 20 21 23 25 27 29 31 32 34 36 38 41 43 45 47 49 50 51 53 55 56 56 57 59 61 62 62 63 64 66 66 66 64 58 52 47 44 41 37 31 29 33 31 29 31 33 39 45 50 52 51 48 47
20 18 17 16 16 15 15 14 13 13 12 11 11 11 11 10 10 10 10 11 11 10 11 11 12 13 13 14 15 16 17 18 20 22 23 25 27 28 29 31 32 34 36 38 40 42 45 48 50 51 52 54 56 56 56 58 61 62 63 64 64 66 67 65 64 61 55 49 44 42 38 30 28 33 33 30 31 31 33 39 45 49 51 49 47
19 18 17 17 16 15 14 14 13 12 11 11 11 11 10 9 9 10 10 10 10 10 10 11 11 12 12 13 14 15 17 19 21 22 24 26 27 28 29 30 31 33 35 37 38 41 44 47 49 50 51 53 54 54 54 56 59 62 63 64 65 66 66 64 62 60 54 47 42 41 38 31 30 36 36 32 31 30 29 32 38 44 49 49 47
19 18 18 17 16 15 14 13 12 12 11 10 10 10 9 9 9 9 10 10 9 9 10 10 11 11 12 13 14 15 17 19 21 23 26 27 28 29 29 30 31 33 34 36 38 41 43 46 48 49 50 51 52 53 53 54 57 60 62 62 63 64 64 63 61 59 53 46 41 40 38 33 32 37 38 34 31 29 27 27 30 37 44 47 47
19 19 18 16 15 14 14 13 12 11 10 10 9 9 8 8 9 9 9 9 8 9 9 9 10 10 11 12 14 16 18 20 22 25 27 28 29 29 30 30 31 32 34 35 37 40 42 44 46 48 49 50 51 51 52 53 56 59 61 62 62 62 64 64 62 59 53 47 42 39 38 35 33 36 37 33 30 26 24 24 25 29 37 43 45
19 19 18 16 15 14 13 13 11 10 9 9 8 8 8 9 9 8 8 7 8 8 8 9 9 9 11 12 14 16 18 20 23 25 27 28 29 30 30 31 32 33 34 35 36 38 40 43 45 46 48 50 51 51 51 52 55 59 63 64 63 63 64 64 62 58 52 46 41 38 38 36 33 34 34 32 28 24 22 22 22 24 30 37 41
20 19 18 16 15 14 13 12 10 9 9 8 8 8 9 8 8 8 7 7 7 7 8 8 8 9 10 12 14 16 18 21 24 25 27 28 29 31 31 32 33 34 36 37 38 39 41 42 44 46 47 49 51 52 52 53 54 58 62 64 64 62 61 61 61 58 50 42 39 39 38 35 31 29 29 30 26 22 20 19 18 20 24 30 37
20 19 18 17 15 14 12 11 10 9 8 8 8 8 9 8 7 7 6 6 6 6 7 7 8 9 10 12 14 17 19 22 24 26 27 29 30 31 33 34 35 36 37 39 40 42 43 44 45 47 48 50 52 53 54 54 54 57 60 62 62 60 58 57 59 57 49 41 39 41 40 36 31 26 25 29 26 18 15 16 15 16 20 24 31
Wind_Direction
277 281 279 275 276 279 280 303 326 330 337 331 321 316 313 314 312 308 307 306 305 306 309 311 309 309 308 308 308 308 309 309 308 309 310 312 315 317 318 320 323 324 325 324 321 320 319 317 321 323 324 324 324 323 321 321 320 319 319 320 320 318 318 321 324 328 327 320 317 319 319 316 315 315 308 301 299 304 305 301 297 296 295 292 289
268 264 260 262 274 281 286 315 345 341 339 331 316 305 302 302 303 304 307 308 309 310 310 309 307 307 306 304 304 305 306 307 308 312 314 317 319 319 322 325 328 329 328 326 324 324 322 322 326 327 326 327 326 325 322 320 321 322 322 322 322 321 321 322 322 323 322 317 316 318 319 316 313 312 308 299 294 296 300 300 296 295 295 294 290
256 252 248 249 273 293 303 323 341 339 337 329 312 300 297 300 304 306 307 307 308 309 307 306 307 307 307 306 307 306 307 310 313 315 317 318 320 323 327 329 330 329 328 328 326 325 324 324 326 328 327 325 325 324 320 319 322 323 322 322 323 323 324 325 321 316 313 314 316 317 319 318 314 311 308 301 294 293 295 297 295 293 293 294 292
247 249 250 243 260 298 302 313 331 333 330 320 308 299 297 300 303 302 301 302 305 308 308 308 311 311 314 316 316 317 318 320 320 320 321 323 326 329 330 330 329 329 328 328 326 324 323 323 325 324 322 320 322 323 322 322 323 321 319 321 323 323 323 323 320 313 306 307 311 312 313 315 314 310 308 303 296 292 292 295 295 293 291 291 293
244 250 256 244 230 275 294 308 329 329 321 312 304 296 297 299 300 301 301 304 311 314 313 314 318 320 324 328 328 330 331 329 327 326 328 330 331 331 330 329 328 328 327 326 324 322 321 321 321 320 319 318 319 321 321 320 319 317 317 320 322 322 321 320 319 315 310 307 303 302 303 303 306 308 306 302 298 294 291 291 292 292 290 289 291
240 242 250 242 225 251 289 309 336 331 317 306 304 302 301 302 304 310 313 315 317 316 319 322 324 327 331 333 335 337 334 330 328 328 329 330 330 329 328 326 325 324 324 323 322 320 318 317 317 317 316 316 316 316 316 315 314 313 315 317 318 319 318 316 316 316 315 312 306 301 299 295 294 297 299 297 294 293 291 289 288 288 288 287 287
232 232 238 235 222 240 276 300 327 319 309 302 305 307 304 304 309 323 324 318 319 319 322 323 320 323 330 332 332 332 329 325 324 323 324 324 324 324 323 322 321 320 319 318 317 316 315 314 314 314 314 313 313 313 312 310 309 309 311 312 312 314 314 311 309 310 312 314 311 304 298 294 290 287 289 291 289 288 288 288 287 285 284 284 283
231 232 234 228 220 234 258 276 301 301 301 299 300 301 300 304 317 333 334 326 329 330 327 321 314 316 322 324 324 323 320 318 317 316 316 317 318 317 317 317 317 317 316 314 313 312 311 310 310 311 310 310 309 310 309 308 306 306 307 307 307 308 309 307 304 305 306 308 310 305 298 294 291 287 284 284 285 284 284 284 284 283 282 280 278
233 233 231 226 223 230 244 258 286 294 297 296 294 298 304 316 330 339 341 336 334 332 327 319 310 309 314 317 318 317 315 314 312 311 310 310 311 311 312 312 312 314 314 313 311 310 309 308 308 307 307 306 306 307 307 307 306 305 305 304 303 302 303 302 301 299 299 300 302 303 301 296 290 288 287 284 283 281 279 278 277 278 280 279 276
231 233 232 236 236 232 237 263 289 298 296 293 296 305 317 332 341 339 336 332 328 324 320 313 306 305 309 313 314 313 312 311 309 307 306 305 306 307 307 307 307 309 309 309 309 308 308 307 306 305 304 303 304 304 304 305 305 305 304 303 301 298 297 296 295 294 293 294 294 296 298 296 292 289 288 285 282 280 278 276 275 274 275 276 276
232 236 240 245 247 241 254 280 294 298 297 295 299 311 324 331 333 330 325 324 322 319 313 307 303 302 304 308 309 309 308 307 306 305 304 303 303 304 304 303 303 303 304 305 305 306 306 306 305 304 303 302 302 302 303 303 303 303 303 302 300 297 295 292 291 291 290 289 289 289 292 294 297 294 288 284 281 281 278 274 273 274 274 271 270
240 244 251 252 251 260 275 287 292 295 300 305 311 317 322 323 320 318 316 317 319 316 309 303 299 299 300 302 303 303 303 303 304 304 304 303 303 302 301 300 299 299 300 301 302 303 304 304 304 304 303 303 302 303 303 303 303 302 302 301 300 297 294 292 290 290 289 287 286 286 287 289 292 292 290 287 285 286 284 278 273 271 273 272 267
243 245 246 245 251 269 279 286 290 297 307 313 316 317 316 315 312 310 311 313 314 312 306 301 297 295 295 296 296 297 298 300 301 302 302 301 300 298 297 297 297 298 298 299 300 301 302 303 303 304 304 304 304 304 304 304 303 303 302 301 300 298 295 293 290 289 288 287 285 284 283 284 286 288 289 286 285 284 280 278 276 271 268 269 267
239 232 232 244 260 273 281 288 294 302 309 312 313 312 310 308 306 305 306 307 307 306 302 297 293 290 290 291 291 292 295 297 298 299 299 298 297 296 297 298 298 298 299 299 300 301 301 302 302 303 303 304 304 305 304 304 303 303 303 303 302 300 298 295 292 289 287 286 285 283 282 281 282 284 284 282 281 278 272 270 274 272 266 265 266
235 237 249 262 271 279 286 292 299 304 306 308 306 305 304 303 302 302 302 302 300 298 295 292 290 288 287 288 289 291 293 295 296 297 298 298 298 298 299 299 299 300 301 301 302 302 303 303 303 303 303 303 304 304 304 304 304 302 302 302 302 301 300 298 295 292 290 287 285 283 282 280 278 278 278 278 277 276 274 272 273 270 263 260 260
244 259 270 276 281 287 292 296 301 304 304 304 302 302 302 301 300 300 299 297 295 292 291 290 289 288 287 286 286 289 291 293 297 299 298 297 297 298 299 299 300 301 302 303 303 303 303 303 304 304 304 304 303 303 303 303 304 303 302 301 300 299 299 298 296 295 293 290 286 283 281 279 277 276 275 274 273 272 273 273 273 270 264 258 257
261 272 278 283 286 286 288 293 297 299 300 300 301 301 301 299 298 297 296 294 292 291 290 289 289 288 287 287 286 287 290 294 298 299 299 299 298 298 298 299 299 300 301 302 302 302 303 304 304 305 305 304 303 302 302 301 302 302 302 301 299 298 297 296 295 294 292 291 289 285 282 279 277 275 273 272 272 271 270 271 272 275 271 262 259
269 276 282 282 280 279 281 287 291 294 296 298 299 299 298 298 297 296 294 293 292 291 290 290 290 290 289 290 291 293 295 296 297 298 300 301 301 301 301 300 300 300 301 302 302 303 304 305 305 305 305 304 304 303 302 301 300 300 301 301 300 299 297 295 294 292 290 289 288 286 284 280 277 275 273 271 270 269 269 269 271 275 274 266 262
272 276 279 277 277 280 284 289 293 295 298 298 298 298 297 297 296 295 294 293 293 292 292 293 293 293 293 295 296 297 298 299 299 299 300 300 301 302 303 303 303 304 305 305 306 306 306 306 306 306 306 305 304 303 302 301 299 299 299 299 299 299 298 297 295 293 291 288 287 285 283 282 279 276 273 272 270 267 267 267 267 269 270 267 264
271 273 275 276 279 283 288 293 295 297 298 298 298 297 297 297 296 296 295 294 294 294 294 296 297 298 300 301 301 301 301 301 301 301 301 300 300 301 303 305 306 307 308 308 307 307 306 306 306 306 305 305 305 304 303 301 300 298 297 296 296 296 296 296 295 293 291 289 287 285 283 281 280 277 274 273 272 269 265 263 263 262 263 263 262
270 273 274 276 281 286 290 294 296 297 297 297 297 297 297 297 297 296 296 296 296 296 298 300 303 305 306 306 306 305 305 305 305 305 305 305 304 304 304 305 306 306 307 307 308 308 307 307 307 306 306 305 305 304 303 302 301 299 298 296 295 294 293 293 293 292 291 289 287 285 282 280 279 278 275 273 272 271 267 262 260 259 257 257 257
272 276 278 282 287 291 295 296 297 297 297 297 298 298 299 298 297 296 296 296 297 299 302 304 308 309 310 310 310 310 309 309 309 309 309 310 311 311 310 308 307 305 305 306 308 309 309 308 308 308 307 307 306 305 304 303 302 301 299 297 296 294 293 292 292 291 290 289 286 284 282 279 278 277 275 272 270 270 269 264 259 257 255 252 251
276 279 282 287 290 293 294 294 295 296 298 299 300 299 298 296 296 295 296 297 300 302 305 309 311 312 312 312 312 312 312 312 312 312 312 312 313 313 313 313 313 312 310 309 310 310 309 309 308 308 308 307 307 306 306 306 305 304 302 300 298 296 295 293 292 291 290 288 286 284 282 279 277 275 274 272 269 268 267 265 260 255 253 250 247
279 281 284 286 288 289 290 292 295 298 299 299 298 297 295 295 295 297 299 301 303 306 310 314 315 314 314 314 313 313 313 313 314 313 313 313 314 315 316 318 318 317 315 313 313 312 311 310 310 310 309 309 308 308 308 308 307 306 305 304 302 299 297 295 294 292 290 289 286 285 282 279 276 274 272 270 268 266 265 264 261 255 251 250 246
280 283 283 284 285 286 290 293 296 297 297 296 296 295 295 297 300 302 305 308 310 314 317 319 318 317 316 315 314 315 315 315 314 314 314 316 318 320 321 321 320 319 318 316 315 314 314 315 314 313 313 312 311 310 310 309 308 307 306 305 303 302 299 297 295 293 291 289 287 285 283 280 277 273 271 269 267 265 263 262 262 257 251 248 246
282 283 283 284 287 290 293 295 296 296 296 295 295 296 299 303 306 309 311 313 316 319 320 320 318 317 316 316 315 315 315 314 314 316 318 320 322 322 322 321 321 322 322 322 320 319 319 320 319 317 316 315 314 312 312 310 309 308 306 305 304 302 301 298 296 294 291 289 287 285 283 281 279 275 271 268 266 265 262 260 260 258 254 248 247
286 286 289 291 293 295 295 295 296 295 295 295 297 301 305 307 310 312 315 317 319 320 320 318 317 316 316 316 316 315 315 316 318 321 323 324 324 324 323 323 323 324 326 328 327 324 323 323 322 320 318 317 316 315 314 313 311 309 308 306 304 302 300 298 296 294 291 289 287 285 283 281 279 276 272 268 264 263 262 260 258 257 255 251 248
294 295 297 297 297 296 295 294 294 293 292 296 301 305 307 310 312 315 316 317 318 318 317 316 316 316 316 316 316 317 318 321 324 326 327 327 327 327 327 327 327 328 329 332 332 329 326 324 323 322 321 319 319 318 316 314 312 310 308 306 303 301 299 297 295 293 291 289 286 284 282 280 277 275 273 269 264 261 260 259 257 255 255 253 250
301 301 301 300 299 295 293 291 289 288 292 299 304 306 309 311 313 314 315 315 315 315 314 314 315 316 316 317 318 320 323 326 327 328 328 329 329 330 330 331 331 331 332 334 336 334 331 329 326 324 324 323 321 318 316 315 313 311 308 306 304 301 299 297 295 293 291 289 286 283 281 279 276 274 272 269 265 261 258 257 256 254 253 252 251
303 302 301 299 295 291 288 286 285 289 295 301 305 308 310 311 311 311 311 311 312 312 312 314 315 316 317 319 321 324 327 328 329 329 330 331 333 333 334 334 334 335 334 334 337 336 333 332 330 327 325 325 323 321 319 317 315 313 311 309 307 304 302 299 297 295 293 290 287 284 281 278 276 273 271 268 265 261 257 255 254 253 252 252 250
301 300 298 295 290 287 285 285 286 290 296 301 306 307 307 307 306 306 306 308 309 310 312 314 316 317 319 322 325 327 328 329 330 331 333 335 336 336 337 337 337 337 336 334 335 337 335 333 332 329 327 327 327 325 322 321 319 317 315 313 311 309 306 304 301 299 296 293 290 286 282 279 276 273 270 267 264 261 257 254 253 252 251 251 250
296 295 294 291 288 286 284 284 285 289 295 300 303 303 303 302 301 302 304 306 308 310 313 315 317 320 323 326 328 328 329 330 332 335 336 337 338 339 340 340 338 337 336 335 334 336 336 334 333 331 329 329 329 327 325 323 323 321 320 318 316 313 310 307 304 301 299 295 291 289 285 281 277 274 270 267 263 260 257 253 252 251 250 249 249
292 291 290 288 284 282 280 280 282 287 293 297 298 299 298 297 298 300 303 306 308 312 315 318 321 324 327 328 328 329 330 333 336 337 338 339 340 341 341 341 340 338 336 335 334 334 337 337 335 334 333 331 331 331 328 326 326 325 323 322 319 315 312 309 307 304 301 296 292 288 285 282 279 275 272 268 264 260 256 253 250 249 249 248 248
288 286 284 281 278 275 274 276 280 285 290 293 294 295 294 294 296 299 303 306 310 314 317 320 324 327 328 329 329 332 334 337 338 339 340 341 342 343 343 342 341 339 337 336 335 336 338 340 339 337 336 334 334 333 331 328 327 326 325 324 321 318 316 314 311 308 303 297 291 287 283 280 278 276 273 270 267 262 257 252 249 247 247 247 246
283 279 277 273 271 270 271 274 278 283 287 289 290 290 291 294 297 300 304 307 312 316 319 323 327 328 329 330 333 335 337 339 340 341 342 343 344 344 344 343 341 339 338 338 340 340 340 341 340 338 338 337 335 335 332 329 328 327 327 327 326 324 322 319 315 311 305 298 292 287 283 279 275 273 271 270 268 265 259 253 248 245 244 245 245
278 275 271 269 267 266 268 273 277 281 284 285 287 289 292 296 299 302 305 309 313 318 322 326 328 328 330 333 336 338 339 340 342 344 344 345 345 345 344 343 341 341 342 343 344 343 341 341 341 340 339 338 337 336 333 330 329 329 329 330 329 328 327 324 321 315 308 301 296 289 284 279 274 270 268 267 266 265 262 257 251 245 242 241 243
274 272 269 266 265 265 267 272 275 279 280 282 285 289 294 299 301 304 307 310 315 319 323 327 328 330 333 336 338 338 340 342 344 345 346 346 346 345 344 344 344 345 347 347 346 344 343 342 341 341 341 339 338 338 335 332 331 331 332 331 332 332 330 327 326 321 314 306 300 292 283 276 272 269 266 265 264 263 263 260 254 249 243 240 239
270 269 267 265 264 264 267 271 274 276 278 281 287 292 297 301 303 306 307 310 316 321 323 327 329 332 335 337 338 339 342 344 345 346 348 348 347 346 346 347 348 350 350 349 346 345 344 344 343 342 342 341 340 339 338 335 333 334 333 332 333 335 333 329 327 325 320 312 304 294 282 273 268 266 264 263 262 261 261 260 257 253 247 242 238
268 267 265 263 263 264 267 270 272 275 277 282 289 295 299 302 305 306 306 310 317 320 323 328 331 334 337 338 339 341 344 345 346 347 348 349 350 349 350 351 353 353 351 349 347 345 345 345 344 343 343 343 341 340 339 337 336 336 336 334 334 336 334 331 330 327 323 316 307 296 284 274 267 264 262 261 260 260 259 259 258 255 251 246 240
268 265 262 261 261 262 265 268 270 274 278 283 290 296 300 303 304 304 304 310 317 319 324 330 333 334 337 338 340 344 346 347 347 349 350 351 353 353 354 355 355 353 351 349 348 347 346 347 346 345 344 344 343 341 340 339 338 339 341 340 338 337 334 333 332 331 327 320 309 298 289 281 272 265 261 259 258 257 258 258 257 255 252 248 243
267 262 260 259 260 262 264 266 269 273 277 283 290 296 301 302 302 302 304 311 317 320 325 330 333 335 337 339 343 346 348 349 350 353 354 354 355 356 357 357 355 353 351 350 349 348 348 348 347 346 345 346 346 343 342 341 341 341 343 342 341 339 336 333 333 335 332 323 312 303 297 291 281 272 265 260 256 255 256 257 257 255 252 248 243
265 259 257 257 259 261 263 265 268 272 277 284 291 296 300 300 299 300 305 313 317 320 326 331 334 335 337 340 345 348 350 352 354 357 358 358 359 360 360 357 355 352 351 351 350 349 349 349 348 347 346 347 348 345 343 342 342 343 344 344 342 340 338 335 334 338 338 327 313 306 303 300 291 282 274 265 258 255 254 254 255 255 252 247 243
264 257 255 256 257 259 260 263 266 270 277 285 291 297 298 298 298 301 307 314 316 320 327 332 334 335 337 342 347 350 352 355 359 1 1 2 3 3 1 358 355 353 352 351 351 351 349 349 349 349 348 348 349 347 344 343 344 344 345 345 344 341 339 337 335 340 342 331 317 308 304 304 299 290 285 277 267 258 253 252 253 253 252 247 242
262 256 254 254 255 256 258 261 265 270 278 286 291 295 295 295 298 302 308 313 315 320 328 332 334 335 338 344 348 351 354 358 3 4 4 5 6 4 2 358 356 355 353 352 352 351 350 349 350 351 349 349 349 348 346 345 344 345 345 346 344 340 338 337 336 339 341 334 323 312 307 309 304 294 291 289 281 269 257 251 250 251 251 249 243
258 253 252 252 252 254 256 259 264 271 279 285 290 292 292 294 299 302 308 312 313 321 329 332 334 336 341 347 350 352 356 1 4 5 5 8 7 4 1 359 357 356 355 354 353 352 351 351 351 352 351 350 349 349 348 346 345 346 347 347 344 340 338 337 336 338 339 334 326 315 310 315 311 298 296 295 289 281 268 255 248 248 249 249 244
254 250 249 249 250 251 254 259 264 271 278 284 287 288 290 294 299 302 307 309 312 322 329 331 334 338 344 350 353 354 359 3 5 5 7 8 6 3 1 359 358 357 355 356 354 353 353 353 353 353 352 351 350 349 349 348 347 347 347 346 344 340 338 337 336 336 337 336 329 318 313 319 317 305 302 301 294 289 280 264 251 245 245 247 245
251 249 247 247 248 250 254 258 264 271 277 282 283 285 290 293 297 300 302 305 313 323 327 330 334 340 346 352 355 358 2 3 4 6 7 7 4 3 1 359 358 358 357 356 355 354 355 355 354 354 354 352 351 351 350 349 348 348 348 346 343 340 338 338 337 338 340 340 336 326 317 318 318 309 305 305 300 295 287 273 259 247 243 243 244
248 247 244 245 246 247 252 257 262 269 274 277 280 283 287 290 293 296 297 303 315 322 324 329 335 342 349 355 358 1 3 3 5 7 6 4 2 0 360 359 358 358 358 358 357 356 356 356 355 356 355 353 353 352 352 351 350 350 349 347 345 342 340 340 340 341 342 342 341 332 321 317 315 308 305 305 302 296 287 277 266 252 242 241 242
244 243 241 242 243 245 251 255 260 267 270 272 275 278 282 285 289 291 294 305 315 318 321 328 336 344 351 357 1 2 2 3 5 6 3 0 358 357 357 357 357 357 358 358 358 358 358 356 355 356 356 354 354 354 354 354 354 353 351 350 348 346 343 341 341 341 342 342 341 335 328 325 319 309 304 303 302 297 286 276 270 259 245 238 239
241 241 239 239 240 244 249 254 260 263 263 266 270 272 277 281 283 286 293 304 309 312 320 327 335 344 352 358 1 1 2 3 4 3 360 357 355 354 354 355 356 356 356 357 358 359 358 357 355 356 356 356 355 356 357 357 357 357 354 352 351 348 345 341 340 340 343 344 341 335 333 334 329 316 307 303 301 297 285 275 271 265 251 238 235
241 239 238 237 239 243 245 249 255 255 256 263 267 269 273 277 280 286 293 300 302 309 321 327 333 343 350 356 359 359 2 3 2 359 356 354 352 351 352 353 354 355 355 356 357 357 357 357 355 354 356 356 356 357 359 359 0 0 358 355 353 351 347 343 342 343 344 344 340 333 331 333 334 327 314 304 302 297 282 274 273 269 259 242 233